Regional Weather Roundup
Issued by NWS

Home | Current Version | Previous Version | Graphics & Text | Print | Product List | Glossary On
Versions: 1 2 3 4 5 6 7 8 9 10 11 12 13 14 15 16 17 18 19 20 21 22 23 24 25 26 27 28 29 30 31 32 33 34 35 36 37 38 39 40 41 42 43 44 45 46 47 48 49 50
000
ASUS43 KLSX 171907
RWRMO

WEATHER SUMMARY FOR MISSOURI
NATIONAL WEATHER SERVICE SPRINGFIELD MO
100 PM CST TUE JAN 17 2017

NOTE: "FAIR" INDICATES FEW OR NO CLOUDS BELOW 12,000 FEET WITH NO
       SIGNIFICANT WEATHER AND/OR OBSTRUCTIONS TO VISIBILITY.
       CURRENT SKY AND/OR WEATHER CONDITIONS ARE NOT AVAILABLE FOR
       CHILLICOTHE AND FARMINGTON.

MOZ001>031-035>038-043-044-053-054-172000-
...NORTHERN AND WESTERN MISSOURI...

CITY           SKY/WX    TMP DP  RH WIND       PRES   REMARKS
KANSAS CTY INT CLOUDY    36  32  85 W9        30.09R WCI  29
KANSAS C DTWN  CLOUDY    38  34  85 W10       30.11R
LEE`S SUMMIT   CLOUDY    37  34  89 W9        30.10R
ST JOSEPH      CLOUDY    36  35  96 NW12      30.09F WCI  28
CHILLICOTHE      N/A     37  35  92 VRB7      30.07F
KIRKSVILLE     CLOUDY    36  35  96 W9        30.03S WCI  29

$$
MOZ066>068-077>081-088>096-101>105-172000-
...SOUTHWEST MISSOURI...

CITY           SKY/WX    TMP DP  RH WIND       PRES   REMARKS
SPRINGFIELD    CLOUDY    39  35  86 NW10      30.10F
JOPLIN         CLOUDY    39  36  89 W12       30.14F
BRANSON        CLOUDY    39  36  87 W9G16     30.12F

$$
MOZ032>034-039>042-045>050-055>058-069>072-172000-
...CENTRAL MISSOURI...

CITY           SKY/WX    TMP DP  RH WIND       PRES   REMARKS
COLUMBIA       CLOUDY    39  36  89 W10       30.05F
JEFFERSON CITY CLOUDY    40  35  83 W12       30.07F
ROLLA          CLOUDY    39  37  92 W14       30.04F
SEDALIA        CLOUDY    40  36  86 W10       30.09R
WHITEMAN AFB   CLOUDY    38  38 100 W13       30.08S
WARRENSBURG    CLOUDY    36  34  93 W7        30.10R WCI  30
OSAGE BEACH    CLOUDY    39  35  86 W12       30.10R

$$
MOZ051-052-059>065-172000-
...EAST CENTRAL MISSOURI...

CITY           SKY/WX    TMP DP  RH WIND       PRES   REMARKS
ST LOUIS INTL  CLOUDY    46  38  73 W15       30.02F
SPIRIT OF STL  CLOUDY    44  39  82 W15       30.02F
ST CHARLES     CLOUDY    43  39  86 W17       30.02F

$$
MOZ072>076-082>087-097>100-106>115-172000-
...SOUTH CENTRAL AND SOUTHEAST MISSOURI...

CITY           SKY/WX    TMP DP  RH WIND       PRES   REMARKS
CAPE GIRARDEAU CLOUDY    45  39  79 W13       30.05F
FARMINGTON     CLOUDY    43  38  82 W8        30.05S
POPLAR BLUFF   CLOUDY    46  39  76 W10       30.06F
WEST PLAINS    CLOUDY    42  38  85 NW13      30.07F

$$


USA.gov is the U.S. government's official web portal to all federal, state and local government web resources and services.